Location: Latina
(41.4670°N, 12.8670°E)
Time: 16:24:06
(UTC+02:00)

ISS - Pass Details

Date: 12 May 2021
Orbit: 417 x 422 km, 51.6° (Epoch: 18 June)

Event Time Altitude Azimuth Distance (km) Brightness Sun altitude
Exits shadow 02:49:49 - 318° (NW) 1,693 -0.5 -25.6°
Reaches altitude 10° 02:50:32 10° 327° (NNW) 1,508 -0.6 -25.6°
Maximum altitude 02:52:33 15° 4° (N) 1,249 -0.6 -25.4°
Drops below altitude 10° 02:54:34 10° 40° (NE) 1,509 0.1 -25.2°
Sets 02:57:23 0° 66° (ENE) 2,375 0.9 -24.9°
